This is the latest recevied weather packets stored in our database for station/object N5PA. If no packets are shown the sender has not sent any weather packets the latest 1 day(s).
| Time | Temp. | Humidity | Pressure | Rain* | Wind** | Luminosity | Snow |
|---|---|---|---|---|---|---|---|
| 1778058006 | 21.11° C | 54% | 1011.8 hPa | 0 mm | - | 997 W/m² | - |
| 1778057406 | 21.11° C | 53% | 1011.6 hPa | 0 mm | - | 998 W/m² | - |
| 1778056805 | 21.11° C | 53% | 1011.5 hPa | 0 mm | - | 998 W/m² | - |
| 1778056505 | 21.11° C | 54% | 1011.6 hPa | 0 mm | - | 997 W/m² | - |
| 1778055006 | 21.11° C | 54% | 1011.6 hPa | 0 mm | - | 998 W/m² | - |
| 1778054705 | 21.11° C | 54% | 1011.8 hPa | 0 mm | - | 995 W/m² | - |
| 1778053205 | 21.11° C | 54% | 1011.5 hPa | 0 mm | - | 995 W/m² | - |
| 1778052904 | 21.11° C | 54% | 1011.7 hPa | 0 mm | - | 995 W/m² | - |
| 1778052606 | 21.11° C | 53% | 1011.7 hPa | 0 mm | - | 997 W/m² | - |
| 1778052306 | 21.11° C | 52% | 1011.8 hPa | 0 mm | - | 995 W/m² | - |
| 1778051406 | 21.11° C | 52% | 1011.8 hPa | 0 mm | - | 997 W/m² | - |
| 1778051106 | 20.56° C | 52% | 1011.9 hPa | 0 mm | - | 998 W/m² | - |
| 1778048705 | 20.56° C | 53% | 1012.3 hPa | 0 mm | - | 998 W/m² | - |
| 1778045708 | 20.56° C | 67% | 1012.4 hPa | 0 mm | - | 1000 W/m² | - |
| 1778045409 | 20.56° C | 67% | 1012.4 hPa | 0 mm | - | 1000 W/m² | - |
| 1778044809 | 20.56° C | 67% | 1012.5 hPa | 0 mm | - | 1000 W/m² | - |
| 1778044509 | 20.56° C | 67% | 1012.6 hPa | 0 mm | - | 1000 W/m² | - |
| 1778043908 | 20.56° C | 67% | 1012.5 hPa | 0 mm | - | 1000 W/m² | - |
| 1778043307 | 20.56° C | 68% | 1012.6 hPa | 0 mm | - | 1000 W/m² | - |
| 1778043009 | 20.56° C | 69% | 1012.6 hPa | 0 mm | - | 1000 W/m² | - |
| 1778042709 | 20.56° C | 70% | 1012.7 hPa | 0 mm | - | 998 W/m² | - |
| 1778041508 | 21.11° C | 71% | 1012.7 hPa | 0 mm | - | 1000 W/m² | - |
| 1778041207 | 21.11° C | 72% | 1012.7 hPa | 0 mm | - | 998 W/m² | - |
| 1778039409 | 21.67° C | 74% | 1012.9 hPa | 0 mm | - | 1000 W/m² | - |
| 1778037908 | 21.67° C | 75% | 1013 hPa | 0 mm | - | 1000 W/m² | - |
* Rain latest hour (hover to see other rain measurements)
** Current wind speed in m/s (hover to see current wind gust speed)